logo
Rechercher aéroport 
image banner adimage banner adimage banner ad
image banner ad

MMZC - Zacatecas Aeropuerto Internacional Gral. Leobardo C. Ruiz

Situé à Zacatecas, Mexico

ICAO - MMZC, IATA - ZCL

Données fournies par Airmate  

Information générale

Coordonnées: N22°53'51" W102°41'9"
Élévation : 7126 feet MSL.
 
Voir autres Aéroports à Zacatecas

Données opérationnelles

Special qualification required
Heure actuelle UTC:
Heure actuelle locale:
Météo
METAR: MMZC 222340Z E18010KT 8SM SCT050 32/M02 A3012 RMK 8/100 HZY
TAF: TAF MMZC 222302Z 2300/2400 22015KT P6SM SCT050 TX33/2321Z TN19/2313Z FM230300 28005KT P6SM SCT050 FM231200 00000KT P6SM SKC FM232100 27010KT P6SM SCT050
Voir NOTAMs / SUP AIP / TFR affectant cet aéroport [VIEW]
Fréquences de communication: [VIEW]

Pistes:

Identifiant RWYQFULongueur (ft)Largeur (ft)SurfaceLDA (ft)
0228°9843148ASP
20208°9843148ASP

Coordonnées de l'aéroport

Adresse: Zacatecas Mexico

Vue satellite de MMZC